Location: Unspecified
(0.0000°N, 0.0000°E)
Time: 06:08:28
(UTC+00:00)

Courier 1B - Pass Details

Date: 29 September 2023
Orbit: 962 x 1208 km, 28.3° (Epoch: 06 December)

Event Time Altitude Azimuth Distance (km) Brightness Sun altitude
Rises 06:08:11 0° 218° (SW) 3,668 10.2 4.4°
Reaches altitude 10° 06:11:21 10° 204° (SSW) 2,744 9.7 5.2°
Maximum altitude 06:16:35 24° 152° (SSE) 1,962 9.6 6.5°
Drops below altitude 10° 06:22:01 10° 100° (E) 2,864 12.6 7.9°
Sets 06:25:23 0° 87° (E) 3,864 13.0 8.7°
